Torna al catalogo

FENGYUN 1C DEB

AttivoSSO
NORAD 31926·DEBRIS·🇨🇳 China

Lanciato May 10, 1999 da Taiyuan Satellite Launch Center

Loading…

Prossimi Passaggi (prossime 24 ore)

TLE

AggiornatoSource: Space-Track

Epoca: Sep 13, 2026, 12:38 UTC

1 31926U 99025CMD 26256.52645086  .00003683  00000-0  13388-2 0  9998
2 31926  98.9602   5.6861 0039339 173.9083 186.2586 14.33449132991617

Traccia FENGYUN 1C DEB in tempo reale con AllMySat

Download on the App Store